DW7040 Weather Reports


Display with metric or nautical units.
time (UTC)temp
F
wind
direction
speed
MPH
gust
MPH
rain 1hr
in
rain 24hr
in
rain mn
in
humidity
%
barometer
mb
20260507064503 0 198 6.0 9.0 0.00 0.00 0.00 1004.5
20260507063059 0 198 3.0 7.0 0.00 0.00 0.00 1004.6
20260507061555 0 197 3.0 8.0 0.00 0.00 0.00 1004.6
20260507060013 0 197 2.0 5.0 0.00 0.00 0.00 1004.6
20260507054510 0 195 2.0 4.0 0.00 0.00 0.00 1004.6
20260507053006 0 197 2.0 4.0 0.00 0.00 0.00 1004.5
20260507051557 0 197 2.0 4.0 0.00 0.00 0.00 1004.5
20260507050052 0 198 2.0 4.0 0.00 0.00 0.00 1004.5
20260507044548 0 198 3.0 6.0 0.00 0.00 0.00 1004.4
20260507043042 0 199 1.0 5.0 0.00 0.00 0.00 1004.4
20260507041502 0 198 0.0 2.0 0.00 0.00 0.00 1004.4
20260507040101 0 197 1.0 3.0 0.00 0.00 0.00 1004.3
20260507034601 0 197 2.0 5.0 0.00 0.00 0.00 1004.3
20260507031510 0 198 2.0 6.0 0.00 0.00 0.00 1004.4
20260507030003 0 198 3.0 5.0 0.00 0.00 0.00 1004.4
20260507024601 0 197 2.0 3.0 0.00 0.00 0.00 1004.4
20260507023054 0 198 2.0 3.0 0.00 0.00 0.00 1004.4
20260507021551 0 198 1.0 2.0 0.00 0.00 0.00 1004.5
20260507020053 0 198 0.0 2.0 0.00 0.00 0.00 1004.5
20260507014546 0 198 0.0 0.0 0.00 0.00 0.00 1004.5
20260507013041 0 198 0.0 0.0 0.00 0.00 0.00 1004.5
20260507011534 0 198 0.0 0.0 0.00 0.00 0.00 1004.6
20260507010018 0 197 0.0 1.0 0.00 0.00 0.00 1004.6
20260507004509 0 198 0.0 1.0 0.00 0.00 0.00 1004.6
20260507003011 0 198 0.0 1.0 0.00 0.00 0.00 1004.7
20260507001501 0 197 0.0 1.0 0.00 0.00 0.00 1004.8
20260507000059 0 197 1.0 3.0 0.00 0.00 0.00 1004.9
20260506234539 0 197 1.0 2.0 0.00 0.00 0.00 1004.9
20260506233038 0 198 1.0 2.0 0.00 0.00 0.00 1004.9
20260506231538 0 198 1.0 3.0 0.00 0.00 0.00 1004.8
20260506230043 0 198 2.0 4.0 0.00 0.00 0.00 1004.8
20260506224538 0 198 2.0 4.0 0.00 0.00 0.00 1004.9
20260506223042 0 198 2.0 5.0 0.00 0.00 0.00 1004.9
20260506221544 0 197 2.0 4.0 0.00 0.00 0.00 1004.9
20260506220024 0 197 3.0 4.0 0.00 0.00 0.00 1004.7
20260506214523 0 197 3.0 4.0 0.00 0.00 0.00 1004.8
20260506213018 0 197 2.0 5.0 0.00 0.00 0.00 1004.8
20260506211514 0 197 1.0 3.0 0.00 0.00 0.00 1004.9
20260506210012 0 197 2.0 4.0 0.00 0.00 0.00 1004.9
20260506204506 0 197 1.0 3.0 0.00 0.00 0.00 1004.9
20260506203102 0 197 0.0 1.0 0.00 0.00 0.00 1004.7
20260506201555 0 197 0.0 0.0 0.00 0.00 0.00 1004.7
20260506200025 0 197 0.0 1.0 0.00 0.00 0.00 1004.6
20260506194539 0 197 1.0 1.0 0.00 0.00 0.00 1004.5
20260506193035 0 197 1.0 3.0 0.00 0.00 0.00 1004.4
20260506191533 0 197 0.0 1.0 0.00 0.00 0.00 1004.3
20260506190026 0 197 0.0 3.0 0.00 0.00 0.00 1004.4
20260506184525 0 197 3.0 4.0 0.00 0.00 0.00 1004.4
20260506183018 0 197 3.0 5.0 0.00 0.00 0.00 1004.4
20260506181511 0 197 2.0 5.0 0.00 0.00 0.00 1004.3
20260506180038 0 197 5.0 8.0 0.00 0.00 0.00 1004.3
20260506174535 0 197 4.0 7.0 0.00 0.00 0.00 1004.4
20260506173054 0 197 3.0 8.0 0.00 0.00 0.00 1004.4
20260506171521 0 197 4.0 8.0 0.00 0.00 0.00 1004.3
20260506170014 0 197 4.0 8.0 0.00 0.00 0.00 1004.4
20260506164509 0 197 6.0 8.0 0.00 0.00 0.00 1004.5
20260506163050 0 197 7.0 9.0 0.00 0.00 0.00 1004.6
20260506161547 0 197 5.0 7.0 0.00 0.00 0.00 1004.8
20260506154522 0 197 5.0 7.0 0.00 0.00 0.00 1004.9
20260506153017 0 198 4.0 7.0 0.00 0.00 0.00 1004.9
20260506151513 0 197 5.0 9.0 0.00 0.00 0.00 1004.9
20260506150009 0 197 4.0 8.0 0.00 0.00 0.00 1005.0
20260506144555 0 197 5.0 9.0 0.00 0.00 0.00 1005.0
20260506143034 0 197 7.0 10.0 0.00 0.00 0.00 1005.0
20260506141526 0 197 4.0 9.0 0.00 0.00 0.00 1005.0
20260506140022 0 198 7.0 10.0 0.00 0.00 0.00 1005.1
20260506134534 0 197 5.0 12.0 0.00 0.00 0.00 1005.1
20260506133025 0 197 9.0 14.0 0.00 0.00 0.00 1005.2
20260506131532 0 198 8.0 14.0 0.00 0.00 0.00 1005.2
20260506130017 0 197 9.0 13.0 0.00 0.00 0.00 1005.2
20260506124555 0 198 9.0 14.0 0.00 0.00 0.00 1005.1
20260506123050 0 197 8.0 13.0 0.00 0.00 0.00 1005.2
20260506121535 0 198 11.0 16.0 0.00 0.00 0.00 1005.1
20260506120033 0 198 9.0 16.0 0.00 0.00 0.00 1005.2
20260506114524 0 197 8.0 16.0 0.00 0.00 0.00 1005.2
20260506113020 0 197 8.0 15.0 0.00 0.00 0.00 1005.3
20260506111515 0 196 7.0 20.0 0.00 0.00 0.00 1005.4
20260506110011 0 196 9.0 16.0 0.00 0.00 0.00 1005.4
20260506104507 0 196 11.0 16.0 0.00 0.00 0.00 1005.5
20260506103002 0 197 12.0 16.0 0.00 0.00 0.00 1005.6
20260506101557 0 197 9.0 15.0 0.00 0.00 0.00 1005.6
20260506094544 0 197 9.0 16.0 0.00 0.00 0.00 1005.7
20260506093037 0 197 11.0 16.0 0.00 0.00 0.00 1005.8
20260506091533 0 197 13.0 17.0 0.00 0.00 0.00 1005.7
20260506090037 0 198 9.0 15.0 0.00 0.00 0.00 1005.7
20260506084523 0 197 9.0 11.0 0.00 0.00 0.00 1005.7
20260506083028 0 197 2.0 5.0 0.00 0.00 0.00 1005.8
20260506081504 0 196 2.0 4.0 0.00 0.00 0.00 1005.8
20260506073004 0 197 1.0 3.0 0.00 0.00 0.00 1005.7
20260506071559 0 197 1.0 2.0 0.00 0.00 0.00 1005.7